| time (UTC) | temp F | wind direction | speed MPH | gust MPH | rain 1hr in | rain 24hr in | rain mn in | humidity % | barometer mb |
| 20260906125603 | 87 | 72 | 4.0 | 8.0 | 0.00 | 0.00 | 0.00 | 49 | 1022.4 |
| 20260906125203 | 88 | 64 | 4.0 | 8.0 | 0.00 | 0.00 | 0.00 | 50 | 1022.2 |
| 20260906124803 | 88 | 76 | 3.0 | 8.0 | 0.00 | 0.00 | 0.00 | 48 | 1022.3 |
| 20260906124403 | 88 | 77 | 3.0 | 8.0 | 0.00 | 0.00 | 0.00 | 49 | 1022.3 |
| 20260906124003 | 88 | 69 | 3.0 | 7.0 | 0.00 | 0.00 | 0.00 | 51 | 1022.3 |
| 20260906123603 | 88 | 64 | 3.0 | 7.0 | 0.00 | 0.00 | 0.00 | 49 | 1022.3 |
| 20260906123203 | 87 | 73 | 4.0 | 7.0 | 0.00 | 0.00 | 0.00 | 51 | 1022.3 |
| 20260906123015 | 87 | 68 | 5.0 | 9.0 | 0.00 | 0.00 | 0.00 | 51 | 1022.4 |
| 20260906122403 | 88 | 82 | 4.0 | 9.0 | 0.00 | 0.00 | 0.00 | 50 | 1022.4 |
| 20260906122003 | 89 | 83 | 3.0 | 7.0 | 0.00 | 0.00 | 0.00 | 49 | 1022.3 |
| 20260906121603 | 88 | 73 | 3.0 | 6.0 | 0.00 | 0.00 | 0.00 | 48 | 1022.3 |
| 20260906121203 | 87 | 79 | 3.0 | 9.0 | 0.00 | 0.00 | 0.00 | 52 | 1022.3 |
| 20260906120803 | 88 | 77 | 3.0 | 9.0 | 0.00 | 0.00 | 0.00 | 50 | 1022.5 |
| 20260906120616 | 88 | 77 | 3.0 | 9.0 | 0.00 | 0.00 | 0.00 | 48 | 1022.4 |
| 20260906120003 | 87 | 83 | 3.0 | 6.0 | 0.00 | 0.00 | 0.00 | 49 | 1022.4 |
| 20260906115603 | 87 | 95 | 3.0 | 8.0 | 0.00 | 0.00 | 0.00 | 48 | 1022.5 |
| 20260906115203 | 87 | 93 | 3.0 | 8.0 | 0.00 | 0.00 | 0.00 | 49 | 1022.3 |
| 20260906114803 | 87 | 96 | 3.0 | 8.0 | 0.00 | 0.00 | 0.00 | 49 | 1022.4 |
| 20260906114403 | 87 | 89 | 4.0 | 9.0 | 0.00 | 0.00 | 0.00 | 49 | 1022.6 |
| 20260906114003 | 87 | 63 | 4.0 | 9.0 | 0.00 | 0.00 | 0.00 | 49 | 1022.4 |
| 20260906113603 | 87 | 44 | 4.0 | 9.0 | 0.00 | 0.00 | 0.00 | 50 | 1022.5 |
| 20260906113416 | 87 | 39 | 4.0 | 8.0 | 0.00 | 0.00 | 0.00 | 49 | 1022.4 |
| 20260906112803 | 87 | 78 | 4.0 | 11.0 | 0.00 | 0.00 | 0.00 | 51 | 1022.5 |
| 20260906112615 | 87 | 81 | 4.0 | 11.0 | 0.00 | 0.00 | 0.00 | 49 | 1022.6 |
| 20260906112003 | 88 | 69 | 4.0 | 6.0 | 0.00 | 0.00 | 0.00 | 49 | 1022.5 |
| 20260906111603 | 87 | 57 | 4.0 | 7.0 | 0.00 | 0.00 | 0.00 | 50 | 1022.6 |
| 20260906111203 | 87 | 64 | 4.0 | 7.0 | 0.00 | 0.00 | 0.00 | 51 | 1022.3 |
| 20260906110803 | 87 | 78 | 4.0 | 7.0 | 0.00 | 0.00 | 0.00 | 50 | 1022.7 |
| 20260906110403 | 87 | 87 | 4.0 | 6.0 | 0.00 | 0.00 | 0.00 | 49 | 1022.6 |
| 20260906110003 | 87 | 81 | 4.0 | 7.0 | 0.00 | 0.00 | 0.00 | 49 | 1022.6 |
| 20260906105603 | 87 | 71 | 3.0 | 7.0 | 0.00 | 0.00 | 0.00 | 49 | 1022.5 |
| 20260906105203 | 86 | 75 | 4.0 | 8.0 | 0.00 | 0.00 | 0.00 | 50 | 1022.6 |
| 20260906105014 | 86 | 77 | 4.0 | 8.0 | 0.00 | 0.00 | 0.00 | 51 | 1022.6 |
| 20260906104403 | 86 | 60 | 4.0 | 8.0 | 0.00 | 0.00 | 0.00 | 50 | 1022.5 |
| 20260906104003 | 86 | 33 | 4.0 | 7.0 | 0.00 | 0.00 | 0.00 | 51 | 1022.6 |
| 20260906103603 | 86 | 22 | 4.0 | 6.0 | 0.00 | 0.00 | 0.00 | 53 | 1022.8 |
| 20260906103417 | 85 | 26 | 4.0 | 8.0 | 0.00 | 0.00 | 0.00 | 51 | 1022.8 |
| 20260906102803 | 85 | 48 | 4.0 | 8.0 | 0.00 | 0.00 | 0.00 | 53 | 1022.7 |
| 20260906102403 | 86 | 68 | 4.0 | 7.0 | 0.00 | 0.00 | 0.00 | 52 | 1022.9 |
| 20260906102003 | 86 | 87 | 4.0 | 7.0 | 0.00 | 0.00 | 0.00 | 50 | 1022.8 |
| 20260906101603 | 86 | 67 | 4.0 | 7.0 | 0.00 | 0.00 | 0.00 | 51 | 1022.7 |
| 20260906101203 | 85 | 37 | 4.0 | 9.0 | 0.00 | 0.00 | 0.00 | 51 | 1022.7 |
| 20260906100803 | 86 | 32 | 4.0 | 9.0 | 0.00 | 0.00 | 0.00 | 52 | 1022.9 |
| 20260906100403 | 85 | 46 | 4.0 | 8.0 | 0.00 | 0.00 | 0.00 | 52 | 1022.6 |